Location: Unspecified
(48.2082°N, 0.0000°E)
Time: 12:00:42
(UTC+00:00)

A-11 Canister half - Pass Details

Date: 28 June 2019
Orbit: 1514 x 1685 km, 47.2° (Epoch: 22 July)

Event Time Altitude Azimuth Distance (km) Brightness Sun altitude
Rises 13:18:55 0° 282° (WNW) 4,874 11.8 60.9°
Reaches altitude 10° 13:22:06 10° 280° (W) 3,865 11.4 60.6°
Maximum altitude 13:31:53 74° 199° (SSW) 1,642 11.1 59.5°
Drops below altitude 10° 13:41:17 10° 116° (ESE) 3,724 11.0 58.4°
Sets 13:44:17 0° 115° (ESE) 4,688 11.4 58.0°
